www.pogodaiklimat.ru

Погода и климат >> Архив погоды >> Канада >> Eureka Climate


ПОГОДА в Eureka Climate

  • Прогноз погоды в Eureka Climate
  • Монитор погоды в Eureka Climate
  • Климат города

АРХИВ ПОГОДЫ в Eureka Climate

Время (UTC), дата Ветер
(напр.,м/с)
 
Видим.   Явления Облачность Т
(С)
Тd
(С)
f
(%)
Тe
(С)
Тes
(С)
Комфортность P
(гПа)
Po
(гПа)
Тmin
(С)
Tmax
(С)
R
(мм)
R24
(мм)
S
(см)
00 11.01 В 2 н/о н/о -40.8 -44.9 64 -50 -50 опасность
обморожения
1014.5 1013.1 -41.3 -34.7
03 11.01 ЮВ 2 н/о н/о -40.9 -45.1 64 -50 -50 опасность
обморожения
1013.5 1012.1
06 11.01 СЗ 2 н/о н/о -41.2 -45.4 64 -49 -49 опасность
обморожения
1011.9 1010.5 -42.2 -34.3
09 11.01 В 2 н/о н/о -41.7 -45.9 63 -50 -50 опасность
обморожения
1010.7 1009.3
12 11.01 ЮВ 2 н/о н/о -42.1 -46.4 63 -50 -50 опасность
обморожения
1009.1 1007.7 -42.8 -34.3 7
15 11.01 ЮВ 2 н/о н/о -42.4 -46.7 63 -50 -50 опасность
обморожения
1006.9 1005.5
18 11.01 0 н/о н/о -40.4 -44.5 65 1003.6 1002.2 -43.2 -38.8
21 11.01 0 н/о н/о -36.4 -39.9 70 1001.5 1000.1
00 12.01 0 н/о н/о -37.5 -41.2 68 999.9 998.5 -43.2 -31.8
03 12.01 0 н/о н/о -30.4 -33.5 74 998.5 997.1
06 12.01 0 н/о н/о -29.8 -32.7 76 997.7 996.3 -43.2 -27.8
09 12.01 0 н/о н/о -32.3 -35.5 73 999.0 997.6
12 12.01 0 н/о н/о -30.9 -33.9 75 1000.0 998.6 -37.5 -27.8 7
15 12.01 0 н/о н/о -32.5 -35.6 74 1001.1 999.7
18 12.01 0 н/о н/о -33.0 -36.2 73 1001.5 1000.1 -42.2 -29.6
21 12.01 0 н/о н/о -34.0 -37.3 72 1002.6 1001.2
00 13.01 0 н/о н/о -34.7 -38.1 71 1003.2 1001.8 -35.7 -30.1
03 13.01 0 н/о н/о -34.8 -38.2 71 1002.9 1001.5
06 13.01 0 н/о н/о -36.0 -39.6 69 1003.2 1001.8 -36.4 -29.6
09 13.01 0 н/о н/о -35.1 -38.6 70 1003.4 1002.0
12 13.01 0 н/о н/о -34.8 -38.2 71 1003.7 1002.3 -37.3 -29.6 7
15 13.01 0 н/о н/о -34.6 -38.0 71 1003.9 1002.5
18 13.01 0 н/о н/о -33.1 -36.3 73 1003.6 1002.2 -37.3 -31.5
21 13.01 0 н/о н/о -28.2 -30.9 78 1004.7 1003.3
00 14.01 0 н/о н/о -31.3 -34.6 73 1005.5 1004.1 -37.3 -26.8
03 14.01 0 н/о н/о -27.6 -30.4 77 1006.7 1005.3
06 14.01 0 н/о н/о -25.0 -27.3 81 1008.0 1006.6 -37.3 -23.0
09 14.01 0 н/о н/о -22.9 -24.9 84 1010.3 1008.9
12 14.01 0 н/о н/о -22.4 -24.4 84 1013.0 1011.6 -32.0 -23.0 7
15 14.01 0 н/о н/о -22.4 -24.3 84 1014.8 1013.4
18 14.01 0 н/о н/о -24.0 -26.2 82 1015.9 1014.5 -33.4 -20.9
21 14.01 0 н/о н/о -24.6 -26.8 82 1017.9 1016.5
00 15.01 0 н/о н/о -26.3 -28.8 79 1019.0 1017.6 -29.0 -20.9
03 15.01 0 н/о н/о -35.0 -38.3 72 1020.0 1018.6
06 15.01 0 н/о н/о -33.0 -36.2 73 1020.1 1018.7 -36.3 -20.9
09 15.01 0 н/о н/о -36.0 -39.5 70 1020.6 1019.2
12 15.01 0 н/о н/о -33.5 -36.7 73 1020.3 1018.9 -36.9 -20.9 7
15 15.01 0 н/о н/о -36.5 -40.0 70 1019.0 1017.6
18 15.01 0 н/о н/о -35.3 -38.7 71 1018.1 1016.7 -38.2 -32.1
21 15.01 0 н/о н/о -36.3 -39.9 69 1017.8 1016.4
00 16.01 0 н/о н/о -35.4 -38.9 70 1017.2 1015.8 -38.2 -32.4
03 16.01 0 н/о н/о -35.9 -39.4 70 1016.5 1015.1
09 16.01 0 н/о н/о -36.7 -40.4 68 1017.0 1015.6
12 16.01 0 н/о н/о -37.1 -40.8 68 1016.7 1015.3 -37.4 -32.1 7
15 16.01 0 н/о н/о -36.5 -40.1 69 1016.5 1015.1
18 16.01 0 н/о н/о -35.1 -38.5 71 1017.2 1015.8 -37.4 -33.5
21 16.01 0 н/о н/о -36.7 -40.3 69 1018.5 1017.1
00 17.01 0 н/о н/о -36.2 -39.8 69 1020.0 1018.6 -37.6 -34.5
03 17.01 0 н/о н/о -35.7 -39.2 70 1020.8 1019.4
06 17.01 0 н/о н/о -35.0 -38.5 70 1021.7 1020.3 -37.6 -33.5
09 17.01 0 н/о н/о -37.2 -40.9 68 1022.6 1021.2
12 17.01 0 н/о н/о -36.8 -40.5 68 1023.0 1021.6 -37.3 -33.5 7
15 17.01 0 н/о н/о -37.2 -40.9 68 1022.3 1020.9
18 17.01 В 2 н/о н/о -37.2 -41.0 68 -46 -46 опасность
обморожения
1021.6 1020.2 -37.9 -34.1

 

Местоположение метеостанции Eureka Climate (Канада): широта 79.99 долгота -85.93 высота над уровнем моря 10 м.

В архиве по умолчанию представлена погода в Eureka Climate за последнюю неделю. Архивные данные за месяц целиком и за предыдущие месяцы, начиная с января 2011 года, Вы можете получить, выбрав интересующий диапазон дат из раскрывающегося списка и нажав кнопку "Ввод!".

Внимание! Время в таблицах - всемирное. Для получения местного времени необходимо прибавить поправку, которая в Eureka Climate равна -6 ч.

Смотрите также архив погоды в соседних городах и на ближайших метеорологических станциях:

Погода в Eureka (Канада) (1 км)
Погода в Chris Hadfield (Канада) (343 км)
Погода в Isachsen (aut) (Канада) (383 км)
Погода в Mittarfik Qaanaaq (Гренландия) (453 км)
Погода в Kitsissut (Гренландия) (472 км)
Погода в Alert Climate (Канада) (482 км)
Погода в Resolute Cs (Канада) (624 км)
Погода в Resolute Airport (Канада) (624 км)
Погода в Arctic Bay (Канада) (778 км)
Погода в Pond Inlet Airport (Канада) (836 км)

Пояснения к столбцам:

Ветер - указаны скорость ветра в м/с - средняя за 10 мин, порывы в срок и между сроками (в фигурных скобках) и направление, откуда дует ветер: С - северный, СВ - северо-восточный, В - восточный, ЮВ - юго-восточный, Ю - южный, ЮЗ - юго-западный, З - западный, СЗ - северо-западный.
Видимость - горизонтальная дальность видимости в метрах или километрах. При видимости от 1 до 10 км при отсутствии осадков обычно наблюдается дымка, при ухудшении видимости до 1 км и менее - туман. В сухую погоду видимость может ухудшаться дымом, пылью или мглою.
Явления - указаны атмосферные явления, наблюдавшиеся в срок или в последний час перед сроком; фигурными скобками обозначены явления, наблюдавшиеся между сроками (за 1-3 часа до срока); квадратными скобками обозначены град или гололедные отложения с указанием их диаметра в мм.
Облачность - указаны через наклонную черту общая и нижняя облачность в баллах и высота нижней границы облаков в метрах; квадратными скобками обозначены формы облаков: Ci - перистые, Cs - перисто-слоистые, Cc - перисто-кучевые, Ac - высококучевые, As - высокослоистые, Sc - слоисто-кучевые, Ns - слоисто-дождевые, Cu - кучевые, Cb - кучево-дождевые. Подробнее классификацию облаков см. в Атласе облаков (PDF).
T - Температура воздуха - температура, измеренная на высоте 2 м над землей.
Td - Температура точки росы - температура, при понижении до которой содержащийся в воздухе водяной пар достигнет насыщения.
f - Относительная влажность воздуха - влажноcть воздуха, измеренная на высоте 2 м над землей.
Te - Эффективная температура - температура, которую ощущает одетый по сезону человек в тени. Характеристика душности погоды. При расчете учитывается влияние влажности воздуха и скорости ветра на теплоощущения человека.
Tes - Эффективная температура на солнце - температура, которую ощущает человек, с поправкой на солнечный нагрев. Характеристика знойности погоды. Зависит от высоты солнца над горизонтом, облачности и скорости ветра. Ночью, в пасмурную погоду, а также при ветре 12 м/с и более поправка равна нулю.
P - Атмосферное давление - приведенное к уровню моря атмосферное давление.
Po - Атмосферное давление - измеренное на уровне метеостанции атмосферное давление.
Tmin - Минимальная температура - минимум температуры воздуха на высоте 2 м над землей.
Tmax - Максимальная температура - максимум температуры воздуха на высоте 2 м над землей.
R - Количество осадков - Количество выпавших осадков за период времени, мм. При наведении курсора мыши на число - период времени, за который выпало указанное количество осадков.
R24 - Количество осадков - Количество выпавших осадков за 24 часа, мм.
S - Снежный покров - Высота снежного покрова, см. При наведении курсора мыши на число - состояние снежного покрова и степень покрытия местности в баллах.